Location: Chèvreville
(49.1099°N, 2.8495°E)
Time: 15:47:41
(UTC+00:00)

BlueWalker 3 - Pass Details

Date: 28 January 2026
Orbit: 451 x 461 km, 53.2° (Epoch: 16 February)

Event Time Altitude Azimuth Distance (km) Brightness Sun altitude
Rises 18:01:48 0° 265° (W) 2,456 7.4 -13.6°
Reaches altitude 10° 18:03:59 10° 271° (W) 1,584 5.8 -13.9°
Maximum altitude 18:07:27 49° 347° (NNW) 590 2.2 -14.5°
Enters shadow 18:09:07 26° 50° (NE) 922 2.8 -14.8°
